Regional Weather Roundup
Issued by NWS

Home | Current Version | Previous Version | Text Only | Print | Product List | Glossary On
Versions: 1 2 3 4 5 6 7 8 9 10 11 12 13 14 15 16 17 18 19 20 21 22 23 24 25 26 27 28 29 30 31 32 33 34 35 36 37 38 39 40 41 42 43 44 45 46 47 48 49 50
000
ASUS46 KPQR 031710
RWROR

OREGON REGIONAL WEATHER ROUNDUP
NATIONAL WEATHER SERVICE PORTLAND OR
1000 AM PDT THU SEP 03 2015

NOTE: "FAIR" INDICATES FEW OR NO CLOUDS BELOW 12,000 FEET WITH
NO SIGNIFICANT WEATHER AND/OR OBSTRUCTIONS TO VISIBILITY.

ORZ001>013-031800-
NORTHWEST OREGON


CITY           SKY/WX    TMP DP  RH WIND       PRES   REMARKS
ASTORIA        MOSUNNY   61  55  81 E3        30.03S
NEWPORT        RAIN      54  52  94 CALM      30.09R
PORTLAND       MOSUNNY   60  51  72 S5        30.05F
VANCOUVER WA   SUNNY     59  50  72 S3        30.05S
SCAPPOOSE      SUNNY     57  50  77 NE3       30.05S
HILLSBORO      SUNNY     58  48  69 VRB3      30.05S
AURORA         PTSUNNY   59  51  75 VRB3      30.06S
MCMINNVILLE    SUNNY     58  51  78 SE6       30.06S
SALEM          SUNNY     61  50  67 SW7       30.04F
CORVALLIS      SUNNY     59  50  72 CALM      30.07S
EUGENE         MOSUNNY   60  51  72 CALM      30.06F
$$

ORZ021-028-031800-
SOUTHWEST OREGON


CITY           SKY/WX    TMP DP  RH WIND       PRES   REMARKS
NORTH BEND     SUNNY     63  57  82 SE3       30.08S
BROOKINGS      SUNNY     65  46  50 N5        30.02F
ROSEBURG       CLOUDY    57  49  74 VRB3      30.07S
SEXTON SUMMIT  LGT RAIN  47  41  80 NE7       30.04S
MEDFORD        SUNNY     58  43  57 CALM      30.04F
$$

ORZ014>016-041-031800-
COLUMBIA GORGE


CITY           SKY/WX    TMP DP  RH WIND       PRES   REMARKS
TROUTDALE      PTSUNNY   59  51  75 CALM      30.05S
THE DALLES     SUNNY     64  43  46 NW14      30.00F
$$

ORZ029>031-041-044-049-050-061>064-502-503-505>511-031800-
EASTERN OREGON


CITY           SKY/WX    TMP DP  RH WIND       PRES   REMARKS
REDMOND        MOSUNNY   55  35  47 W8        30.02S
BEND           MOSUNNY   50  37  62 NW5       30.03S
PRINEVILLE     SUNNY     54  37  54 VRB6      30.02S
KLAMATH FALLS  CLOUDY    53  35  50 N7        30.01S
LAKEVIEW       CLOUDY    50  41  71 N16       29.99
HERMISTON      SUNNY     62  42  47 W12       29.98F
PENDLETON      MOSUNNY   60  38  43 W13       29.99S
JOHN DAY       MOSUNNY   55  38  53 W5        30.01S
MEACHAM        PTSUNNY   49  38  65 VRB5      30.00R
LA GRANDE      SUNNY     57  34  41 N8        29.98F
BAKER CITY     SUNNY     55  38  52 NW12      29.99S
BURNS          PTSUNNY   54  34  46 NW5       30.00F
ROME             N/A     61  37  41 N12       29.96S
ONTARIO        LGT RAIN  54  46  74 CALM      29.98S
$$




USA.gov is the U.S. government's official web portal to all federal, state and local government web resources and services.